Dewpoint
-14 -16 -18 -18 -20 -20 -17 -14 -11 -11 -7 -9 -14 -17 -18 -20 -22 -21 -20 -20 -21 -23 -26 -27 -21 -6 -3
-13 -14 -14 -17 -16 -13 -17 -12 -8 -8 -8 -6 -6 -5 -5 -9 -13 -7 -11 -19 -17 -16 -17 -18 -21 -22 -7
-9 -9 -9 -9 -9 -10 -9 -9 -11 -9 -8 -7 -7 -6 -6 -7 -7 -7 -11 -14 -17 -21 -24 -22 -19 -19 -19
-9 -8 -8 -8 -8 -8 -8 -9 -8 -9 -8 -9 -8 -9 -9 -8 -8 -11 -9 -8 -9 -12 -12 -15 -21 -9 -5
-9 -9 -8 -8 -8 -8 -8 -8 -9 -9 -8 -9 -12 -13 -12 -10 -12 -9 -8 -7 -7 -7 -7 -8 -7 -6 -7
-8 -7 -8 -8 -8 -8 -8 -7 -7 -9 -8 -10 -10 -9 -11 -12 -9 -8 -7 -7 -7 -7 -7 -7 -7 -7 -7
-11 -7 -7 -7 -7 -8 -8 -8 -9 -10 -9 -9 -9 -9 -12 -9 -8 -12 -13 -7 -7 -8 -7 -8 -8 -8 -7
-8 -9 -9 -9 -10 -9 -9 -12 -13 -10 -9 -9 -11 -11 -11 -12 -13 -12 -9 -10 -9 -8 -8 -8 -8 -8 -7
-8 -8 -8 -8 -8 -9 -15 -10 -11 -9 -11 -11 -11 -11 -12 -13 -11 -10 -10 -10 -9 -8 -8 -8 -7 -8 -8
-9 -9 -10 -12 -12 -12 -10 -9 -10 -9 -9 -9 -10 -10 -9 -10 -11 -13 -13 -14 -9 -9 -8 -8 -8 -8 -7
-9 -9 -11 -13 -10 -11 -10 -9 -10 -10 -12 -10 -9 -9 -9 -9 -10 -12 -13 -14 -13 -13 -13 -12 -8 -7 -7
-9 -10 -10 -9 -9 -9 -12 -13 -12 -10 -12 -13 -10 -10 -9 -9 -9 -10 -12 -13 -14 -14 -11 -11 -11 -11 -9
-10 -9 -9 -9 -10 -13 -12 -10 -9 -10 -11 -11 -10 -10 -10 -10 -10 -10 -10 -14 -13 -11 -10 -10 -12 -10 -7
-10 -10 -11 -11 -10 -11 -11 -11 -11 -12 -11 -11 -11 -11 -11 -10 -10 -11 -13 -11 -11 -12 -9 -10 -11 -9 -7
-10 -11 -11 -11 -11 -10 -11 -11 -10 -10 -12 -12 -11 -11 -11 -11 -11 -12 -11 -10 -12 -10 -10 -10 -9 -8 -7
-11 -11 -11 -11 -11 -11 -11 -11 -11 -11 -11 -11 -11 -11 -11 -11 -12 -10 -11 -11 -12 -10 -10 -9 -9 -10 -8
-11 -11 -11 -11 -11 -11 -11 -11 -11 -11 -11 -11 -10 -10 -10 -10 -11 -11 -11 -12 -10 -10 -9 -9 -9 -9 -9
Wind_Speed
17 19 21 23 24 24 24 23 19 20 21 28 27 26 27 28 29 29 30 31 32 33 33 33 34 32 31
16 19 20 22 22 23 24 19 19 18 23 21 23 22 23 27 27 28 29 30 30 31 32 33 33 34 33
16 16 17 17 21 22 18 21 22 19 21 20 21 23 23 27 27 28 30 30 30 31 33 33 34 34 33
14 15 15 16 16 18 22 22 22 23 23 26 22 25 28 28 27 29 27 30 33 32 32 32 33 31 30
14 14 15 15 17 19 20 23 27 24 24 27 33 33 31 30 30 27 30 30 33 33 32 32 30 31 32
13 14 15 17 19 19 24 25 28 25 28 33 31 31 33 34 29 28 28 32 32 32 32 29 32 34 34
14 13 16 16 19 22 24 26 29 30 28 32 29 30 32 29 27 34 36 30 30 32 31 31 32 35 34
15 17 18 20 21 22 25 29 29 25 22 29 33 31 32 34 34 31 26 32 33 30 28 31 32 34 34
17 18 18 19 19 20 24 22 28 24 24 26 28 34 35 36 30 28 31 31 32 33 32 30 31 32 35
18 19 18 17 17 18 20 22 25 29 22 27 31 30 35 32 30 36 37 37 31 31 31 29 30 34 33
18 19 19 20 19 21 19 20 25 29 29 27 31 32 30 37 36 38 38 38 36 35 36 34 30 30 35
20 21 20 21 23 22 24 24 24 26 30 29 31 28 31 36 36 38 40 39 36 33 33 35 35 33 35
19 20 20 23 26 25 23 23 26 28 28 23 25 28 30 33 37 38 37 37 30 32 34 36 37 36 42
20 22 23 23 24 23 25 25 26 25 22 22 24 25 28 28 29 36 35 29 33 33 32 36 32 32 36
19 21 22 22 24 23 22 22 23 26 26 23 21 22 25 25 30 29 29 29 32 29 32 31 27 31 30
20 20 21 23 22 22 24 23 23 25 26 26 27 27 28 28 21 24 28 29 28 26 26 26 29 27 26
18 19 20 22 24 23 22 24 26 26 26 26 27 27 30 32 29 24 28 29 23 28 26 21 25 23 22
Wind_Direction
279 287 295 302 305 310 313 319 315 310 310 312 317 315 314 312 312 312 310 309 307 305 303 302 300 300 302
297 300 300 304 309 308 312 318 311 317 310 321 320 321 317 316 318 317 314 311 308 307 306 304 301 300 299
298 302 303 309 311 317 322 312 319 316 318 320 320 320 318 319 318 316 316 314 313 309 305 303 303 302 299
297 301 304 309 311 315 316 325 318 316 310 317 321 316 315 317 316 317 317 308 309 310 308 305 302 304 304
295 300 303 309 310 313 312 309 313 318 317 313 312 318 321 316 320 318 311 312 312 312 309 307 305 302 304
291 291 297 300 305 307 307 312 312 315 312 310 315 313 315 315 313 313 312 311 313 311 310 307 303 303 303
299 300 299 302 301 300 302 303 302 305 311 306 308 306 313 312 308 307 313 315 310 308 304 305 302 300 302
292 291 288 290 293 296 296 300 305 305 308 298 304 308 309 306 311 315 310 312 314 315 309 304 302 301 302
309 311 306 301 300 300 305 307 306 308 304 307 311 310 311 313 318 317 316 319 314 313 310 308 303 306 301
295 294 296 299 298 302 306 302 303 307 311 311 314 315 314 314 312 319 322 324 317 314 313 311 308 309 306
297 294 293 299 293 297 298 294 296 297 308 308 305 304 301 305 308 312 317 323 323 321 319 316 312 308 307
290 296 301 300 300 297 300 298 296 296 301 302 300 303 303 304 303 310 314 316 322 321 325 321 319 317 315
298 298 293 288 291 297 302 301 298 297 304 308 308 309 306 303 302 308 311 318 324 324 322 323 326 330 328
289 291 296 301 302 304 305 309 308 317 321 316 309 306 307 301 299 305 314 311 322 323 319 318 327 334 332
312 313 314 312 309 311 312 317 312 310 316 324 323 315 313 312 309 316 317 315 317 320 322 322 331 334 337
310 311 308 312 318 319 310 308 313 314 314 324 329 325 322 317 315 309 307 310 320 327 330 327 327 337 341
317 314 317 313 306 310 320 321 317 314 320 326 324 322 314 308 318 313 314 321 321 330 326 321 323 335 344
Height
1537 1535 1533 1530 1528 1526 1523 1521 1519 1516 1513 1509 1506 1503 1499 1497 1493 1490 1487 1484 1480 1477 1475 1472 1469 1467 1465
1532 1530 1528 1526 1524 1521 1519 1517 1515 1513 1510 1506 1503 1499 1496 1492 1488 1485 1482 1479 1475 1471 1468 1465 1462 1459 1457
1527 1526 1524 1522 1520 1517 1515 1513 1511 1509 1506 1503 1499 1495 1492 1489 1485 1481 1477 1473 1470 1465 1462 1458 1455 1452 1450
1524 1523 1521 1519 1517 1515 1512 1510 1507 1505 1503 1499 1495 1492 1488 1484 1481 1476 1472 1469 1464 1460 1456 1452 1449 1446 1444
1520 1519 1518 1516 1514 1511 1508 1506 1503 1501 1498 1494 1490 1486 1482 1479 1475 1472 1468 1464 1459 1455 1451 1446 1443 1440 1436
1516 1516 1514 1513 1510 1508 1505 1502 1498 1498 1493 1488 1486 1481 1478 1473 1470 1467 1463 1459 1454 1450 1446 1442 1438 1433 1429
1512 1512 1510 1509 1506 1503 1501 1498 1495 1493 1490 1482 1481 1476 1473 1469 1465 1461 1456 1452 1448 1444 1440 1436 1432 1428 1423
1509 1507 1506 1504 1502 1500 1497 1493 1490 1488 1486 1478 1475 1470 1467 1463 1460 1455 1451 1446 1440 1436 1433 1429 1424 1420 1415
1505 1503 1502 1500 1498 1495 1492 1489 1484 1482 1480 1475 1470 1464 1459 1454 1452 1449 1445 1440 1436 1430 1426 1422 1418 1413 1407
1501 1499 1497 1495 1494 1492 1489 1485 1482 1476 1475 1472 1465 1463 1451 1448 1447 1443 1439 1434 1429 1424 1419 1415 1411 1405 1398
1496 1494 1492 1491 1489 1487 1485 1482 1477 1472 1471 1468 1462 1458 1455 1443 1439 1437 1434 1427 1422 1417 1412 1407 1403 1399 1392
1491 1489 1487 1486 1483 1481 1478 1475 1473 1468 1465 1463 1456 1454 1448 1440 1434 1430 1427 1422 1418 1411 1406 1401 1396 1390 1385
1487 1485 1483 1480 1477 1474 1471 1469 1465 1462 1459 1456 1452 1448 1445 1438 1431 1425 1421 1415 1413 1408 1402 1396 1390 1383 1374
1481 1478 1476 1473 1470 1468 1464 1461 1457 1454 1453 1450 1447 1444 1437 1434 1429 1421 1417 1413 1408 1404 1398 1392 1386 1381 1373
1476 1474 1472 1469 1466 1463 1460 1457 1454 1450 1446 1444 1441 1438 1434 1430 1423 1419 1412 1409 1406 1400 1395 1387 1383 1378 1370
1473 1471 1468 1466 1462 1460 1457 1454 1450 1446 1442 1438 1435 1430 1426 1423 1422 1415 1411 1406 1402 1397 1392 1386 1380 1377 1370
1469 1467 1465 1462 1460 1456 1453 1450 1446 1443 1439 1436 1431 1428 1421 1415 1414 1413 1407 1402 1398 1393 1390 1386 1381 1376 1371